Regional Weather Roundup
Issued by NWS Sioux Falls, SD

Home | Current Version | Previous Version | Text Only | Print | Product List | Glossary On
Versions: 1 2 3 4 5 6 7 8 9 10 11 12 13 14 15 16 17 18 19 20 21 22 23 24 25 26 27 28 29 30 31 32 33 34 35 36 37 38 39 40 41 42 43 44 45 46 47 48 49 50
000
ASUS43 KFSD 250010
RWRFSD

WEATHER ROUNDUP FOR SE SOUTH DAKOTA/SW MINNESOTA/NW IOWA
NATIONAL WEATHER SERVICE SIOUX FALLS SD
600 PM CST TUE JAN 24 2017

NOTE: "FAIR" INDICATES FEW OR NO CLOUDS BELOW 12,000 FEET WITH NO
SIGNIFICANT WEATHER AND OR OBSTRUCTIONS TO VISIBILITY.


SDZ038>040-050-052>070-250100-
SOUTHEAST SOUTH DAKOTA

CITY           SKY/WX    TMP DP  RH WIND       PRES   REMARKS
BROOKINGS      CLOUDY    28  26  92 NE13      29.74R WCI  17
CHAMBERLAIN    LGT SNOW  31  30  98 N13G20    29.74R WCI  21
6HR MIN TEMP:  31; 6HR MAX TEMP:  33; 6HR PCP:  0.01;

HURON          LGT SNOW  30  29  96 N8        29.79R FOG     WCI  22
6HR MIN TEMP:  30; 6HR MAX TEMP:  31; 6HR PCP:  0.03;

MADISON        CLOUDY    27  27 100 NE16      29.73R WCI  14
MITCHELL       LGT SNOW  30  30 100 NE15      29.75R VSB 3/4 WCI  19
6HR MIN TEMP:  30; 6HR MAX TEMP:  33; 6HR PCP:  0.01;

SIOUX FALLS    SNOW      30  29  96 NE18      29.71R VSB 1/4 WCI  18
6HR MIN TEMP:  30; 6HR MAX TEMP:  31; 6HR PCP:  0.07;

WINNER         FOG       29  27  92 N18       29.72R VSB 1   WCI  16
YANKTON          N/A     30  27  86 NE21G28   29.64S VSB 1/2 WCI  17
$$

MNZ071-072-080-081-089-090-097-098-250100-
SOUTHWEST MINNESOTA

CITY           SKY/WX    TMP DP  RH WIND       PRES   REMARKS
FAIRMONT       CLOUDY    30  28  92 E14       29.74R FOG     WCI  19
JACKSON        LGT SNOW  30  28  93 E14       29.73R WCI  20
LUVERNE        LGT SNOW  28  27  93 NE15G22   29.71R VSB 1   WCI  17
MARSHALL       NOT AVBL
MONTEVIDEO     CLOUDY    30  28  93 E8        29.80S WCI  23
PIPESTONE      CLOUDY    28  28 100 E10G16    29.72R FOG     WCI  19
REDWOOD FALLS  CLOUDY    31  25  78 NE7       29.77S WCI  24
TRACY          CLOUDY    30  28  93 NE12      29.75R FOG     WCI  21
WINDOM         CLOUDY    30  28  93 NE14      29.73R FOG     WCI  20
WORTHINGTON    LGT SNOW  29  27  92 MISG        N/A  FOG
$$

IAZ001>003-012>014-020>022-031-032-NEZ013-014-SDZ071-250100-
NORTHWEST IOWA

CITY           SKY/WX    TMP DP  RH WIND       PRES   REMARKS
CHEROKEE       LGT SNOW  30  30 100 NE13G20   29.63S VSB 3/4 WCI  20
DENISON        FLURRIES  32  30  93 E17G25    29.57R WCI  21
ESTHERVILLE    HVY SNOW  29  29 100 NE16      29.70S VSB 1/4 WCI  17
LE MARS        LGT SNOW  30  30 100 NE17G26   29.65R VSB 3/4 WCI  18
ORANGE CITY    LGT SNOW  28  28 100 NE12G20   29.64R VSB 3/4 WCI  18
SHELDON        SNOW      28  30 100 NE24      29.64S VSB 1/4 WCI  14
SIOUX CITY     LGT SNOW  32  30  92 S12G24    29.61R FOG     WCI  23
6HR MIN TEMP:  32; 6HR MAX TEMP:  34; 6HR PCP:  0.09;

SPENCER        HVY SNOW  30  29  96 NE21      29.67F VSB 1/4 WCI  17
6HR MIN TEMP:  30; 6HR MAX TEMP:  31; 6HR PCP:  0.06;

STORM LAKE     LGT SNOW  28  28 100 NE21G29   29.62R WCI  15
$$

ABBREVIATIONS USED IN REMARKS
   TC - TEMPERATURE IN CELSIUS
  WCI - WIND CHILL INDEX
   HX - HEAT INDEX
  VSB - VISIBILITY




USA.gov is the U.S. government's official web portal to all federal, state and local government web resources and services.